Tracking 18852 objects as of 23-Nov-2017
HD Live streaming from Space Station
objects crossing your sky now

GALAXY 3R

Track GALAXY 3R now!
GALAXY 3R is classified as:


NORAD ID: 23741
Int'l Code: 1995-069A
Perigee: 35,771.6 km
Apogee: 35,816.1 km
Inclination: 10.2 °
Period: 1,436.1 minutes
Semi major axis: 42164 km
RCS: 12.3125 m2 (large)
Launch date: December 15, 1995
Source: United States (US)
Launch site: AIR FORCE EASTERN TEST RANGE (AFETR)

24 C-band, 16 Ku-band; North America, Caribbean; 140 television channels.
aabbcc
Your satellite tracking list
Your tracking list is empty




NASA's NSSDC Master Catalog

Two Line Element Set (TLE):
1 23741U 95069A   17326.45934145 +.00000077 +00000-0 +00000-0 0  9994
2 23741 010.2341 038.4508 0005277 218.7945 194.3467 01.00271486080444
Source of the keplerian elements: AFSPC